BAGASKAR Weather Reports


time (UTC)temp
F
wind
direction
speed
knots
gust
knots
rain 1hr
in
rain 24hr
in
rain mn
in
humidity
%
barometer
mb
20260507072725 46 114 4.3 7.8 0.00 0.00 0.00 57 1015.9
20260507070725 46 110 5.2 8.7 0.00 0.00 0.00 54 1015.9
20260507064725 46 108 7.0 9.6 0.00 0.00 0.00 54 1015.9
20260507062725 46 99 7.0 9.6 0.00 0.00 0.00 51 1015.8
20260507060725 45 79 5.2 9.6 0.00 0.00 0.00 50 1015.7
20260507054725 44 70 4.3 8.7 0.00 0.00 0.00 53 1015.6
20260507052725 44 52 5.2 7.8 0.00 0.00 0.00 54 1015.5
20260507050724 43 47 7.0 8.7 0.00 0.00 0.00 56 1015.5
20260507044724 42 40 7.8 9.6 0.00 0.00 0.00 60 1015.4
20260507040725 42 46 7.8 9.6 0.00 0.00 0.00 60 1015.4
20260507034725 41 45 7.8 10.4 0.00 0.00 0.00 58 1015.3
20260507032725 41 44 9.6 11.3 0.00 0.00 0.00 58 1015.2
20260507030725 41 43 9.6 11.3 0.00 0.00 0.00 58 1015.1
20260507024724 41 42 9.6 12.2 0.00 0.00 0.00 59 1014.9
20260507022724 41 42 9.6 12.2 0.00 0.00 0.00 60 1015.0
20260507020724 41 48 8.7 10.4 0.00 0.00 0.00 58 1015.0
20260507014724 41 52 7.8 11.3 0.00 0.00 0.00 57 1015.0
20260507012724 41 50 9.6 11.3 0.00 0.00 0.00 54 1014.9
20260507010724 41 48 9.6 12.2 0.00 0.00 0.00 55 1014.9
20260507004723 42 47 8.7 12.2 0.00 0.00 0.00 54 1014.7
20260507002724 42 44 10.4 12.2 0.00 0.00 0.00 53 1014.8
20260507000724 42 42 9.6 11.3 0.00 0.00 0.00 58 1014.7
20260506234724 42 41 8.7 11.3 0.00 0.00 0.00 58 1014.7
20260506232724 42 42 8.7 10.4 0.00 0.00 0.00 57 1014.7
20260506230725 42 34 8.7 11.3 0.00 0.00 0.00 62 1014.7
20260506224723 42 35 8.7 10.4 0.00 0.00 0.00 58 1014.7
20260506220724 43 27 8.7 9.6 0.00 0.00 0.00 63 1014.5
20260506214724 43 25 7.8 9.6 0.00 0.00 0.00 65 1014.4
20260506212724 41 5 7.8 8.7 0.00 0.00 0.00 66 1014.3
20260506210723 41 334 5.2 7.8 0.00 0.00 0.00 80 1014.2
20260506202723 41 331 5.2 7.8 0.00 0.00 0.00 85 1014.2
20260506200723 42 281 5.2 6.1 0.00 0.00 0.00 100 1014.2
20260506194723 41 264 7.0 7.8 0.00 0.00 0.00 100 1014.2
20260506192723 41 251 6.1 7.8 0.00 0.00 0.00 100 1014.2
20260506190723 42 263 7.0 8.7 0.00 0.00 0.00 98 1014.2
20260506184722 43 257 7.8 9.6 0.00 0.00 0.00 95 1014.1
20260506182724 43 256 8.7 10.4 0.00 0.00 0.00 95 1014.0
20260506180723 44 248 9.6 11.3 0.00 0.00 0.00 92 1014.1
20260506174723 44 244 9.6 12.2 0.00 0.00 0.00 83 1014.1
20260506172722 45 245 10.4 11.3 0.00 0.00 0.00 77 1014.1
20260506170722 46 245 10.4 12.2 0.00 0.00 0.00 75 1014.1
20260506164721 47 243 9.6 11.3 0.00 0.00 0.00 69 1014.0
20260506162722 47 246 11.3 13.0 0.00 0.00 0.00 65 1014.0
20260506160722 48 248 10.4 12.2 0.00 0.00 0.00 65 1014.0
20260506152722 48 253 13.0 14.8 0.00 0.00 0.00 68 1014.0
20260506150721 47 255 14.8 16.5 0.00 0.00 0.00 70 1014.1
20260506144721 46 256 16.5 20.0 0.00 0.00 0.00 74 1014.2
20260506142721 46 257 17.4 20.0 0.00 0.00 0.00 72 1014.2
20260506140721 47 255 15.6 19.1 0.00 0.00 0.00 66 1014.4
20260506132721 47 254 16.5 20.9 0.00 0.00 0.00 66 1014.3
20260506130721 47 251 18.2 23.5 0.00 0.00 0.00 61 1014.3
20260506124721 48 254 20.9 24.3 0.00 0.00 0.00 58 1014.2
20260506122721 48 249 17.4 24.3 0.00 0.00 0.00 59 1014.4
20260506120721 47 245 18.2 22.6 0.00 0.00 0.00 65 1014.5
20260506114722 48 246 18.2 24.3 0.00 0.00 0.00 62 1014.4
20260506112721 46 241 17.4 20.9 0.00 0.00 0.00 72 1014.4
20260506110721 45 243 17.4 20.0 0.00 0.00 0.00 87 1014.5
20260506104722 46 245 18.2 20.9 0.00 0.00 0.00 81 1014.4
20260506102722 46 243 17.4 20.9 0.00 0.00 0.00 80 1014.3
20260506100722 46 243 16.5 20.0 0.00 0.00 0.00 81 1014.1
20260506094722 46 243 14.8 17.4 0.00 0.00 0.00 85 1014.1
20260506092722 47 244 14.8 17.4 0.00 0.00 0.00 76 1013.7
20260506090722 47 245 13.0 15.6 0.00 0.00 0.00 69 1013.6
20260506084722 49 257 13.0 16.5 0.00 0.00 0.00 70 1013.6
20260506082722 49 252 13.0 15.6 0.00 0.00 0.00 76 1013.5
20260506080722 47 244 14.8 16.5 0.00 0.00 0.00 81 1013.4